CW1569 Weather Reports


Display with metric or nautical units.
time (UTC)temp
F
wind
direction
speed
MPH
gust
MPH
rain 1hr
in
rain 24hr
in
rain mn
in
humidity
%
barometer
mb
20260831231828 82 360 3.0 6.0 0.00 0.22 0.20 83 1010.4
20260831231340 82 360 3.0 6.0 0.00 0.22 0.20 83 1010.3
20260831230826 82 360 3.0 6.0 0.01 0.22 0.20 83 1010.3
20260831230336 82 206 2.0 6.0 0.01 0.22 0.20 83 1010.2
20260831225827 82 360 2.0 6.0 0.01 0.22 0.20 82 1010.2
20260831225337 83 360 3.0 8.0 0.01 0.22 0.20 82 1010.1
20260831224847 83 209 4.0 9.0 0.01 0.23 0.20 82 1010.3
20260831224400 83 209 4.0 10.0 0.01 0.23 0.20 81 1010.2
20260831223825 83 360 4.0 11.0 0.01 0.23 0.20 82 1010.1
20260831223335 83 360 8.0 13.0 0.01 0.23 0.20 81 1010.1
20260831222825 83 360 5.0 13.0 0.01 0.23 0.20 82 1010.0
20260831222334 83 360 10.0 12.0 0.01 0.23 0.20 81 1010.1
20260831221843 83 360 5.0 14.0 0.01 0.23 0.20 83 1010.0
20260831221357 82 360 7.0 14.0 0.01 0.23 0.20 81 1010.0
20260831220824 82 209 4.0 11.0 0.00 0.22 0.19 83 1009.9
20260831220335 82 212 5.0 10.0 0.00 0.22 0.19 84 1009.8
20260831215847 81 360 4.0 10.0 0.00 0.22 0.19 85 1009.8
20260831215334 80 360 4.0 8.0 0.00 0.22 0.19 87 1010.0
20260831214844 80 360 3.0 8.0 0.01 0.24 0.19 88 1009.9
20260831214333 79 192 5.0 8.0 0.01 0.24 0.19 88 1009.9
20260831213839 79 360 4.0 8.0 0.01 0.24 0.19 88 1009.9
20260831213330 78 360 3.0 5.0 0.01 0.24 0.19 89 1010.0
20260831212840 78 360 2.0 7.0 0.01 0.24 0.19 88 1010.1
20260831212328 78 360 2.0 8.0 0.01 0.24 0.19 88 1010.0
20260831211837 78 360 3.0 8.0 0.01 0.24 0.19 88 1010.0
20260831211330 78 360 4.0 10.0 0.01 0.24 0.19 88 1010.0
20260831210904 78 186 3.0 10.0 0.01 0.24 0.19 88 1009.8
20260831210354 77 214 4.0 13.0 0.01 0.24 0.19 90 1009.7
20260831205841 77 360 5.0 13.0 0.01 0.24 0.19 91 1009.4
20260831205330 76 360 3.0 9.0 0.01 0.24 0.19 90 1009.0
20260831204836 76 360 5.0 9.0 0.00 0.27 0.18 89 1008.6
20260831204324 76 360 1.0 7.0 0.00 0.27 0.18 88 1009.1
20260831203832 76 207 4.0 15.0 0.00 0.27 0.18 87 1009.7
20260831203340 77 360 5.0 15.0 0.00 0.27 0.18 87 1009.9
20260831202829 77 360 6.0 13.0 0.01 0.27 0.18 87 1009.3
20260831202339 77 360 7.0 13.0 0.01 0.27 0.18 86 1009.5
20260831201848 77 360 5.0 8.0 0.01 0.27 0.18 85 1010.0
20260831201359 78 360 4.0 7.0 0.01 0.27 0.18 84 1010.2
20260831200826 78 360 3.0 12.0 0.01 0.27 0.18 83 1010.6
20260831200333 79 208 4.0 14.0 0.01 0.27 0.18 81 1010.6
20260831195822 79 360 8.0 14.0 0.01 0.27 0.18 79 1010.7
20260831195332 80 209 6.0 13.0 0.01 0.27 0.18 77 1010.7
20260831194842 80 198 7.0 13.0 0.01 0.34 0.18 76 1010.4
20260831194331 81 360 5.0 11.0 0.01 0.34 0.18 76 1010.2
20260831193839 81 360 6.0 12.0 0.01 0.34 0.18 75 1010.2
20260831193326 81 195 8.0 13.0 0.01 0.34 0.18 74 1010.3
20260831192835 81 360 9.0 14.0 0.01 0.33 0.17 73 1010.2
20260831192325 82 360 6.0 18.0 0.01 0.33 0.17 72 1010.2
20260831191858 82 360 6.0 19.0 0.01 0.33 0.17 71 1010.3
20260831191328 83 207 5.0 13.0 0.01 0.33 0.17 70 1010.2
20260831190838 83 174 5.0 12.0 0.01 0.33 0.17 71 1010.1
20260831190346 83 360 7.0 12.0 0.01 0.33 0.17 70 1010.1
20260831185835 83 360 6.0 19.0 0.01 0.33 0.17 68 1010.0
20260831185344 84 360 6.0 21.0 0.01 0.33 0.17 68 1010.3
20260831184852 84 360 14.0 21.0 0.02 0.35 0.17 64 1010.4
20260831184409 85 360 10.0 21.0 0.02 0.35 0.17 65 1010.4
20260831183856 85 360 12.0 21.0 0.02 0.35 0.17 65 1010.4
20260831183323 85 196 8.0 15.0 0.02 0.35 0.17 65 1010.4
20260831182831 85 360 8.0 16.0 0.01 0.34 0.16 65 1010.3
20260831182342 85 360 10.0 16.0 0.01 0.34 0.16 64 1010.2
20260831181851 85 360 5.0 16.0 0.01 0.34 0.16 67 1010.2
20260831181340 84 360 10.0 16.0 0.01 0.34 0.16 65 1010.2
20260831180825 84 204 6.0 18.0 0.01 0.34 0.16 68 1010.3
20260831180330 84 360 11.0 18.0 0.01 0.34 0.16 66 1010.3
20260831175840 83 360 7.0 14.0 0.02 0.34 0.16 68 1010.3
20260831175329 83 360 7.0 13.0 0.02 0.34 0.16 69 1010.3
20260831174838 82 360 6.0 16.0 0.01 0.33 0.15 70 1010.3
20260831174347 81 204 10.0 16.0 0.01 0.33 0.15 69 1010.3
20260831173855 81 165 6.0 13.0 0.01 0.33 0.15 70 1010.3
20260831173322 81 360 6.0 15.0 0.01 0.33 0.15 70 1010.4
20260831172831 81 360 6.0 17.0 0.01 0.33 0.15 69 1010.5
20260831172341 81 360 6.0 17.0 0.01 0.33 0.15 68 1010.5
20260831171830 81 360 6.0 17.0 0.02 0.33 0.15 69 1010.5
20260831171342 81 360 8.0 13.0 0.02 0.33 0.15 69 1010.6
20260831170829 81 360 7.0 13.0 0.02 0.33 0.15 69 1010.7
20260831170338 81 190 5.0 14.0 0.02 0.33 0.15 70 1010.9
20260831165848 81 159 8.0 14.0 0.01 0.32 0.14 70 1010.9
20260831165356 80 360 6.0 16.0 0.01 0.32 0.14 70 1011.0
20260831164844 80 360 9.0 16.0 0.01 0.32 0.14 70 1011.1
20260831164334 80 360 7.0 14.0 0.02 0.32 0.14 71 1010.9
20260831163823 79 360 7.0 14.0 0.02 0.32 0.14 72 1011.1
20260831163328 79 360 9.0 14.0 0.02 0.32 0.14 72 1011.1
20260831162836 79 360 6.0 18.0 0.02 0.32 0.14 72 1011.3
20260831162324 79 360 12.0 18.0 0.02 0.32 0.14 71 1011.3
20260831161831 79 360 8.0 19.0 0.01 0.31 0.13 73 1011.3
20260831161341 78 360 7.0 19.0 0.01 0.31 0.13 73 1011.3
20260831160847 78 360 8.0 16.0 0.02 0.31 0.13 74 1011.3
20260831160354 78 360 7.0 13.0 0.02 0.31 0.13 77 1011.4
20260831155843 77 360 4.0 13.0 0.02 0.31 0.13 79 1011.4
20260831155356 77 360 6.0 13.0 0.02 0.31 0.13 80 1011.4
20260831154845 76 360 6.0 14.0 0.02 0.31 0.13 79 1011.3
20260831154333 76 360 10.0 14.0 0.01 0.30 0.12 81 1011.3
20260831153839 75 360 6.0 14.0 0.01 0.30 0.12 82 1011.3
20260831153327 75 360 7.0 14.0 0.02 0.30 0.12 83 1011.4
20260831152836 74 360 5.0 13.0 0.02 0.30 0.12 84 1011.3
20260831152326 74 360 5.0 13.0 0.02 0.30 0.12 85 1011.4
20260831151830 74 360 5.0 14.0 0.02 0.30 0.12 84 1011.4
20260831151339 74 360 8.0 14.0 0.02 0.30 0.12 85 1011.5
20260831150825 73 360 6.0 14.0 0.01 0.29 0.11 86 1011.5
20260831150335 73 360 9.0 15.0 0.02 0.29 0.11 86 1011.5
20260831145825 73 360 9.0 15.0 0.02 0.29 0.11 87 1011.5
20260831145334 73 360 5.0 12.0 0.02 0.29 0.11 87 1011.6
20260831144824 73 360 7.0 12.0 0.02 0.29 0.11 87 1011.5
20260831144333 73 360 7.0 15.0 0.02 0.29 0.11 87 1011.5
20260831143841 73 360 8.0 16.0 0.03 0.29 0.11 87 1011.5
20260831143331 73 360 8.0 16.0 0.02 0.28 0.10 87 1011.4
20260831142839 72 360 8.0 17.0 0.02 0.28 0.10 88 1011.3
20260831142331 72 360 6.0 17.0 0.02 0.28 0.10 88 1011.3
20260831141840 72 360 5.0 14.0 0.03 0.28 0.10 89 1011.3
20260831141331 72 360 9.0 13.0 0.03 0.28 0.10 89 1011.4
20260831140838 72 360 9.0 13.0 0.03 0.28 0.10 90 1011.4
20260831140326 72 360 7.0 15.0 0.02 0.27 0.09 90 1011.5
20260831135835 71 360 6.0 15.0 0.02 0.27 0.09 91 1011.4
20260831135325 71 360 6.0 16.0 0.03 0.27 0.09 91 1011.6
20260831134839 71 360 7.0 16.0 0.03 0.30 0.09 91 1011.8
20260831134348 71 360 7.0 14.0 0.03 0.30 0.09 91 1011.7
20260831133830 70 360 7.0 13.0 0.03 0.30 0.09 91 1011.7
20260831133339 70 360 8.0 13.0 0.03 0.29 0.08 91 1011.7
20260831132828 70 360 7.0 9.0 0.03 0.29 0.08 91 1011.6
20260831132336 70 360 6.0 11.0 0.03 0.29 0.08 91 1011.7
20260831131847 70 360 4.0 11.0 0.02 0.28 0.07 91 1012.2
20260831131333 70 360 6.0 10.0 0.03 0.28 0.07 90 1012.2
20260831130841 71 360 5.0 9.0 0.03 0.28 0.07 91 1012.2
20260831130329 71 360 5.0 9.0 0.03 0.28 0.07 91 1012.2
20260831125906 70 360 5.0 10.0 0.04 0.28 0.07 90 1012.1
20260831125352 70 360 4.0 10.0 0.03 0.27 0.06 91 1012.2
20260831124841 70 360 4.0 8.0 0.03 0.33 0.06 91 1011.9
20260831124331 70 360 3.0 8.0 0.03 0.33 0.06 91 1011.9
20260831123839 70 360 5.0 7.0 0.04 0.33 0.06 91 1011.8
20260831123327 70 360 5.0 7.0 0.03 0.32 0.05 91 1011.8
20260831122837 70 360 3.0 6.0 0.04 0.32 0.05 91 1011.7
20260831122329 70 360 4.0 6.0 0.04 0.32 0.05 90 1011.6
20260831121837 71 360 4.0 6.0 0.04 0.32 0.05 90 1011.7
20260831121327 71 360 2.0 7.0 0.04 0.31 0.04 90 1011.8
20260831120857 70 360 4.0 7.0 0.04 0.31 0.04 90 1011.7
20260831120326 70 360 4.0 8.0 0.04 0.31 0.04 90 1011.6
20260831115834 70 360 5.0 10.0 0.03 0.30 0.03 90 1011.7
20260831115324 70 360 5.0 10.0 0.03 0.30 0.03 90 1011.5
20260831114834 71 360 5.0 11.0 0.03 0.31 0.03 89 1011.7
20260831114345 71 360 7.0 12.0 0.03 0.31 0.03 90 1011.5
20260831113852 70 360 5.0 12.0 0.02 0.30 0.02 90 1011.6
20260831113341 70 169 6.0 12.0 0.02 0.30 0.02 90 1011.6
20260831112849 70 360 5.0 10.0 0.01 0.29 0.01 89 1011.7
20260831112336 71 360 5.0 11.0 0.01 0.29 0.01 88 1012.1
20260831111827 71 360 8.0 13.0 0.01 0.29 0.01 88 1012.0
20260831111337 71 217 9.0 13.0 0.00 0.28 0.00 88 1012.1
20260831110843 71 360 5.0 11.0 0.00 0.28 0.00 87 1012.0
20260831110352 72 360 6.0 13.0 0.00 0.28 0.00 86 1012.2
20260831105820 72 360 5.0 10.0 0.00 0.28 0.00 84 1012.1
20260831105330 72 360 3.0 6.0 0.00 0.28 0.00 83 1011.9
20260831104835 72 360 2.0 5.0 0.00 0.28 0.00 83 1011.7
20260831104324 73 360 2.0 4.0 0.00 0.28 0.00 83 1011.6
20260831103832 73 233 2.0 5.0 0.00 0.28 0.28 82 1011.4
20260831103342 73 360 2.0 6.0 0.00 0.28 0.28 82 1011.0
20260831102836 73 196 5.0 7.0 0.00 0.28 0.28 82 1010.9
20260831102325 73 360 4.0 7.0 0.00 0.28 0.28 82 1010.8
20260831101834 73 360 4.0 6.0 0.00 0.28 0.28 83 1010.9
20260831101324 73 188 4.0 5.0 0.00 0.28 0.28 83 1010.8
20260831100832 73 186 0.0 5.0 0.00 0.28 0.28 84 1010.7
20260831100343 73 186 3.0 5.0 0.00 0.28 0.28 84 1010.7
20260831095857 73 360 3.0 8.0 0.00 0.28 0.28 84 1010.6
20260831095346 73 360 4.0 8.0 0.00 0.28 0.28 85 1010.7
20260831094834 73 360 4.0 8.0 0.00 0.28 0.28 85 1010.6
20260831094344 73 360 5.0 8.0 0.00 0.28 0.28 85 1010.7
20260831093854 73 360 4.0 8.0 0.00 0.28 0.28 85 1010.8
20260831093322 73 360 4.0 8.0 0.00 0.28 0.28 85 1010.7
20260831092832 73 360 3.0 8.0 0.00 0.28 0.28 85 1010.7
20260831092321 73 360 4.0 7.0 0.00 0.28 0.28 86 1010.7
20260831091831 73 360 4.0 7.0 0.00 0.28 0.28 86 1010.7
20260831091339 73 360 3.0 7.0 0.00 0.28 0.28 86 1010.6
20260831090827 73 360 4.0 7.0 0.00 0.28 0.28 87 1010.7
20260831090336 73 360 4.0 8.0 0.00 0.28 0.28 87 1010.7
20260831085824 73 360 5.0 8.0 0.00 0.28 0.28 87 1010.7
20260831085333 73 360 4.0 6.0 0.00 0.28 0.28 87 1010.7
20260831084843 73 360 4.0 6.0 0.00 0.28 0.28 87 1010.8
20260831084332 73 360 3.0 6.0 0.00 0.28 0.28 87 1010.8
20260831083838 73 360 4.0 6.0 0.00 0.28 0.28 87 1010.8
20260831083328 73 360 3.0 6.0 0.00 0.28 0.28 88 1010.8
20260831082836 73 144 3.0 6.0 0.00 0.28 0.28 88 1010.9
20260831082325 73 360 3.0 6.0 0.00 0.28 0.28 88 1011.0
20260831081834 73 360 3.0 6.0 0.00 0.28 0.28 88 1011.0
20260831081324 73 150 2.0 6.0 0.00 0.28 0.28 88 1010.9
20260831080832 73 360 4.0 6.0 0.00 0.28 0.28 88 1010.9
20260831080336 73 360 3.0 5.0 0.00 0.28 0.28 88 1011.0
20260831075826 74 360 3.0 5.0 0.00 0.28 0.28 87 1010.9
20260831075334 74 360 3.0 5.0 0.00 0.28 0.28 87 1011.0
20260831074824 74 360 3.0 5.0 0.00 0.29 0.28 86 1011.2
20260831074334 74 360 3.0 5.0 0.00 0.29 0.28 86 1011.2
20260831073822 74 360 4.0 5.0 0.00 0.29 0.28 86 1011.2
20260831073333 74 360 2.0 5.0 0.00 0.29 0.28 86 1011.3
20260831072822 74 360 3.0 5.0 0.00 0.29 0.28 86 1011.4
20260831072332 74 360 2.0 4.0 0.00 0.29 0.28 86 1011.4
20260831071821 74 360 1.0 4.0 0.00 0.29 0.28 86 1011.5
20260831071333 74 360 2.0 4.0 0.00 0.29 0.28 86 1011.5
20260831070822 74 360 2.0 4.0 0.00 0.29 0.28 87 1011.5
20260831070330 74 360 2.0 5.0 0.00 0.29 0.28 87 1011.5
20260831065840 74 360 2.0 5.0 0.00 0.29 0.28 87 1011.6
20260831065328 74 360 2.0 5.0 0.00 0.29 0.28 87 1011.5
20260831064838 74 360 2.0 5.0 0.00 0.29 0.28 87 1011.6
20260831064329 74 360 2.0 6.0 0.00 0.29 0.28 87 1011.6
20260831063837 74 360 3.0 6.0 0.00 0.29 0.28 87 1011.4
20260831063347 74 360 3.0 7.0 0.00 0.29 0.28 87 1011.4
20260831062834 74 360 3.0 7.0 0.00 0.29 0.28 87 1011.4
20260831062323 74 360 3.0 7.0 0.00 0.29 0.28 87 1011.4
20260831061833 74 360 4.0 7.0 0.00 0.29 0.28 87 1011.4
20260831061323 74 360 3.0 6.0 0.00 0.29 0.28 88 1011.4
20260831060854 74 360 3.0 6.0 0.00 0.29 0.28 88 1011.4
20260831060323 74 360 3.0 7.0 0.00 0.29 0.28 88 1011.4
20260831055859 74 360 3.0 7.0 0.00 0.29 0.28 88 1011.4
20260831055328 74 360 3.0 7.0 0.00 0.29 0.28 88 1011.4
20260831054837 74 360 3.0 8.0 0.00 0.29 0.28 88 1011.5
20260831054348 74 360 5.0 8.0 0.00 0.29 0.28 88 1011.5
20260831053835 74 360 3.0 9.0 0.00 0.29 0.28 89 1011.5
20260831053324 74 360 5.0 9.0 0.00 0.29 0.28 89 1011.5
20260831052834 74 360 3.0 7.0 0.00 0.29 0.28 89 1011.5
20260831052322 74 360 3.0 6.0 0.00 0.29 0.28 90 1011.5
20260831051859 74 360 4.0 6.0 0.00 0.29 0.28 90 1011.5
20260831051329 74 360 4.0 8.0 0.00 0.29 0.28 91 1011.5
20260831050835 73 360 3.0 8.0 0.00 0.29 0.28 91 1011.5
20260831050344 73 360 4.0 8.0 0.00 0.29 0.28 92 1011.4
20260831045854 73 360 3.0 8.0 0.00 0.29 0.28 92 1011.4
20260831045337 73 360 5.0 8.0 0.00 0.29 0.28 93 1011.4
20260831044846 73 360 4.0 6.0 0.00 0.29 0.28 93 1011.4
20260831044400 73 360 3.0 6.0 0.00 0.29 0.28 93 1011.3
20260831043847 73 360 3.0 5.0 0.00 0.29 0.28 93 1011.4
20260831043356 73 360 2.0 6.0 0.00 0.29 0.28 93 1011.6
20260831042844 73 360 3.0 6.0 0.00 0.29 0.28 93 1011.6
20260831042359 73 360 1.0 8.0 0.00 0.29 0.28 93 1011.7
20260831041846 73 360 3.0 8.0 0.00 0.29 0.28 93 1011.7
20260831041335 73 360 4.0 6.0 0.00 0.29 0.28 93 1011.7
20260831040824 73 360 2.0 6.0 0.00 0.29 0.28 93 1011.8
20260831040332 73 360 3.0 6.0 0.00 0.29 0.28 92 1011.8
20260831035821 73 360 3.0 5.0 0.00 0.29 0.28 91 1011.9
20260831035330 73 360 0.0 5.0 0.00 0.29 0.28 91 1012.2
20260831034836 74 360 2.0 5.0 0.00 0.29 0.28 91 1012.4
20260831034347 74 360 3.0 4.0 0.00 0.29 0.28 90 1012.2
20260831033835 74 360 1.0 3.0 0.00 0.29 0.28 90 1012.2
20260831033323 74 360 0.0 3.0 0.00 0.29 0.28 90 1012.1
20260831032858 74 360 0.0 5.0 0.00 0.29 0.28 89 1012.0
20260831032347 74 360 1.0 5.0 0.00 0.29 0.28 89 1011.9
20260831031855 74 360 2.0 5.0 0.00 0.29 0.28 89 1012.1
20260831031324 74 360 1.0 6.0 0.00 0.29 0.28 89 1012.3
20260831030831 74 360 1.0 6.0 0.00 0.29 0.28 89 1012.4
20260831030338 74 360 2.0 5.0 0.00 0.29 0.28 89 1012.5
20260831025848 74 179 1.0 5.0 0.00 0.29 0.28 89 1012.7
20260831025336 74 178 3.0 7.0 0.00 0.29 0.28 89 1012.5
20260831024826 74 360 3.0 8.0 0.00 0.29 0.28 89 1012.3
20260831024335 74 360 4.0 10.0 0.00 0.29 0.28 89 1012.5
20260831023823 74 360 5.0 11.0 0.00 0.29 0.28 89 1012.6
20260831023333 74 360 5.0 11.0 0.00 0.29 0.28 89 1012.7
20260831022822 74 360 4.0 10.0 0.00 0.29 0.28 89 1012.1
20260831022326 74 360 4.0 9.0 0.00 0.29 0.28 89 1012.2
20260831021836 74 360 4.0 8.0 0.00 0.29 0.28 89 1012.3
20260831021327 74 360 4.0 8.0 0.00 0.29 0.28 89 1012.5
20260831020835 74 360 3.0 6.0 0.00 0.29 0.28 89 1012.4
20260831020343 74 360 4.0 5.0 0.00 0.29 0.28 89 1012.5
20260831015832 74 360 3.0 7.0 0.00 0.29 0.28 89 1012.7
20260831015321 74 216 4.0 10.0 0.00 0.29 0.28 89 1012.4
20260831014857 74 360 6.0 10.0 0.00 0.29 0.28 90 1012.3
20260831014326 74 360 4.0 6.0 0.00 0.29 0.28 90 1012.4
20260831013839 74 360 3.0 9.0 0.00 0.29 0.28 90 1012.3
20260831013327 74 360 6.0 12.0 0.00 0.29 0.28 90 1012.2
20260831012837 73 360 7.0 12.0 0.00 0.29 0.28 90 1012.0
20260831012346 73 360 5.0 11.0 0.00 0.29 0.28 91 1012.1
20260831011857 73 360 4.0 7.0 0.00 0.29 0.28 91 1012.2
20260831011325 73 150 3.0 7.0 0.00 0.29 0.28 91 1012.4
20260831010833 73 360 4.0 6.0 0.00 0.29 0.28 91 1012.3
20260831010323 73 183 3.0 8.0 0.01 0.29 0.28 91 1012.1
20260831005826 73 176 4.0 8.0 0.01 0.29 0.28 91 1012.1
20260831005336 73 360 5.0 8.0 0.01 0.29 0.28 91 1012.1
20260831004826 73 360 4.0 9.0 0.01 0.29 0.28 91 1012.1
20260831004335 73 360 5.0 15.0 0.01 0.29 0.28 91 1012.0
20260831003843 73 360 7.0 15.0 0.01 0.29 0.28 92 1011.9
20260831003353 73 360 7.0 12.0 0.01 0.29 0.28 92 1012.0
20260831002840 73 360 4.0 14.0 0.01 0.29 0.28 92 1012.1
20260831002347 73 360 6.0 14.0 0.01 0.29 0.28 92 1012.1
20260831001857 73 360 5.0 13.0 0.01 0.29 0.28 92 1012.0
20260831001327 73 360 6.0 12.0 0.01 0.29 0.28 92 1011.8
20260831000836 73 360 5.0 11.0 0.01 0.29 0.28 92 1011.5
20260831000325 73 360 6.0 12.0 0.00 0.28 0.27 92 1011.4
20260830235832 73 360 8.0 12.0 0.00 0.28 0.27 92 1011.4
20260830235322 73 360 6.0 9.0 0.01 0.28 0.27 92 1011.4
20260830234831 73 360 5.0 11.0 0.01 0.28 0.27 92 1011.4
20260830234338 73 360 5.0 12.0 0.01 0.28 0.27 92 1011.4
20260830233826 73 360 6.0 12.0 0.01 0.28 0.27 92 1011.5
20260830233335 73 360 4.0 11.0 0.01 0.28 0.27 91 1011.8
20260830232825 73 360 5.0 8.0 0.01 0.28 0.27 91 1012.0
20260830232329 73 360 5.0 10.0 0.01 0.28 0.27 91 1011.9